Weather History for Hobbs, NM

Change the Weather History Date:

Saturday, October 27, 2012

  Actual Average Record
Temperature  
Mean Temperature 42 °F -  
Max Temperature 55 °F 70 °F 89 °F (1952)
Min Temperature 30 °F 45 °F 30 °F (1957)
Degree Days  
Heating Degree Days 22    
Moisture  
Dew Point 16 °F    
Average Humidity 40    
Maximum Humidity 55    
Minimum Humidity 21    
Precipitation  
Precipitation 0.00 in - - ()
Sea Level Pressure  
Sea Level Pressure 30.25 in    
Wind  
Wind Speed 3 mph (SE)    
Max Wind Speed 13 mph    
Max Gust Speed 16 mph    
Visibility 10 miles    
Events      
Averages and records for this station are not official NWS values.
T = Trace of Precipitation, MM = Missing Value Source: NWS Daily Summary

Daily Weather History Graph

Daily Weather History Graph

Search for Another Location

Airport:

Trip Planner

Search our weather history database for the weather conditions in past years. The results will help you decide how hot, cold, wet, or windy it might be!

Date:

Astronomy

Oct. 27, 2012 Rise Set
Actual Time 7:06 AM MDT 6:06 PM MDT
Civil Twilight 6:41 AM MDT 6:31 PM MDT
Nautical Twilight 6:12 AM MDT 7:00 PM MDT
Astronomical Twilight 5:43 AM MDT 7:29 PM MDT
Moon 4:50 PM MDT (10/27) 5:08 AM MDT (10/27)
Length of Visible Light 11h 49m
Length of Day
10h 59m
Waxing Gibbous, 96% of the Moon is Illuminated
Oct 27
Waxing Gibbous
Oct 29
Full
Nov 6
Last Quarter
Nov 13
New
Nov 20
First Quarter

Hourly Weather History & Observations

Time (MDT) Temp. Windchill Dew Point Humidity Pressure Visibility Wind Dir Wind Speed Gust Speed Precip Events Conditions
12:15 AM 35.6 °F - 15.8 °F 44% 30.36 in 10.0 mi Calm Calm - N/A   Clear
12:35 AM 35.6 °F 30.7 °F 15.8 °F 44% 30.35 in 10.0 mi ENE 5.8 mph - N/A   Clear
12:55 AM 35.6 °F - 15.8 °F 44% 30.35 in 10.0 mi Calm Calm - N/A   Clear
1:15 AM 35.6 °F - 15.8 °F 44% 30.34 in 10.0 mi Calm Calm - N/A   Clear
1:55 AM 33.8 °F - 15.8 °F 48% 30.33 in 10.0 mi Calm Calm - N/A   Clear
2:15 AM 33.8 °F - 15.8 °F 48% 30.33 in 10.0 mi Calm Calm - N/A   Clear
2:35 AM 32.0 °F - 15.8 °F 51% 30.32 in 10.0 mi Calm Calm - N/A   Clear
2:55 AM 32.0 °F - 15.8 °F 51% 30.33 in 10.0 mi Calm Calm - N/A   Clear
3:15 AM 32.0 °F - 15.8 °F 51% 30.32 in 10.0 mi Calm Calm - N/A   Clear
3:35 AM 32.0 °F - 15.8 °F 51% 30.31 in 10.0 mi Calm Calm - N/A   Clear
3:55 AM 32.0 °F - 15.8 °F 51% 30.31 in 10.0 mi Calm Calm - N/A   Clear
4:15 AM 32.0 °F - 15.8 °F 51% 30.31 in 10.0 mi Calm Calm - N/A   Clear
4:35 AM 32.0 °F - 15.8 °F 51% 30.31 in 10.0 mi Calm Calm - N/A   Clear
4:55 AM 30.2 °F - 15.8 °F 55% 30.30 in 10.0 mi Calm Calm - N/A   Clear
5:50 AM 32.0 °F - 15.8 °F 51% 30.30 in 10.0 mi Calm Calm - N/A   Overcast
6:50 AM 32.0 °F - 17.6 °F 55% 30.30 in 10.0 mi Calm Calm - N/A   Partly Cloudy
7:50 AM 32.0 °F - 17.6 °F 55% 30.30 in 10.0 mi Calm Calm - N/A   Clear
8:50 AM 37.4 °F 32.1 °F 19.4 °F 48% 30.31 in 10.0 mi ESE 6.9 mph - N/A   Clear
9:50 AM 41.0 °F 35.8 °F 19.4 °F 42% 30.31 in 10.0 mi SE 8.1 mph - N/A   Clear
11:50 AM 48.2 °F - 14.0 °F 25% 30.26 in 10.0 mi SE 10.4 mph - N/A   Clear
12:50 PM 51.8 °F - 14.0 °F 22% 30.21 in 10.0 mi SSE 10.4 mph - N/A   Clear
1:50 PM 53.6 °F - 14.0 °F 21% 30.17 in 10.0 mi SSE 12.7 mph - N/A   Clear
2:50 PM 55.4 °F - 15.8 °F 21% 30.14 in 10.0 mi SSE 10.4 mph 16.1 mph N/A   Clear
4:50 PM 55.4 °F - 15.8 °F 21% 30.12 in 10.0 mi SSE 10.4 mph - N/A   Clear
5:50 PM 51.8 °F - 17.6 °F 26% 30.12 in 10.0 mi SE 9.2 mph - N/A   Clear
6:15 PM 48.2 °F - 15.8 °F 27% 30.13 in 10.0 mi SSE 6.9 mph - N/A   Clear
6:35 PM 46.4 °F 42.4 °F 15.8 °F 29% 30.13 in 10.0 mi SSE 8.1 mph - N/A   Clear
6:55 PM 44.6 °F 40.2 °F 15.8 °F 31% 30.14 in 10.0 mi SSE 8.1 mph - N/A   Clear
7:15 PM 44.6 °F 41.4 °F 15.8 °F 31% 30.15 in 10.0 mi SSE 5.8 mph - N/A   Clear
7:55 PM 41.0 °F 37.1 °F 14.0 °F 33% 30.16 in 10.0 mi SSE 5.8 mph - N/A   Clear
8:15 PM 39.2 °F 35.0 °F 14.0 °F 36% 30.17 in 10.0 mi SE 5.8 mph - N/A   Clear
8:35 PM 39.2 °F 35.0 °F 14.0 °F 36% 30.18 in 10.0 mi SE 5.8 mph - N/A   Clear
8:55 PM 39.2 °F 34.2 °F 14.0 °F 36% 30.18 in 10.0 mi SSE 6.9 mph - N/A   Clear
9:15 PM 39.2 °F 34.2 °F 14.0 °F 36% 30.18 in 10.0 mi SSE 6.9 mph - N/A   Clear
9:35 PM 37.4 °F 32.1 °F 14.0 °F 38% 30.19 in 10.0 mi SE 6.9 mph - N/A   Clear
10:15 PM 35.6 °F 29.9 °F 14.0 °F 41% 30.20 in 10.0 mi SSE 6.9 mph - N/A   Clear
10:55 PM 35.6 °F 30.7 °F 14.0 °F 41% 30.20 in 10.0 mi SSE 5.8 mph - N/A   Clear
11:15 PM 35.6 °F 30.7 °F 14.0 °F 41% 30.20 in 10.0 mi SE 5.8 mph - N/A   Clear